When you browse on this site, cookies collect data to enhance your experience and personalize the content and advertising you see.
Visit our Privacy Policy to learn more. By continuing to use the site, you agree to this use of cookies and data.
  • In Österreich
  • Länderverzeichnis
  • Für 7 Tage
  • Wassertemperatur
  • Wetterkarte
  • News
  • Widgets
  • user-avatar
    Anmelden

    Stündliche Wetter Río Gallegos

    Heute, 24 Januar, Freitag

    Zeit Temperatur Niederschläge Wind Luftdruck Luftfeuchtigkeit
    00:00 +7°C° 0 mm 6 m/S 749 mmHg 65%
    01:00 +7°C° 0 mm 6 m/S 749 mmHg 67%
    02:00 +7°C° 0 mm 5 m/S 749 mmHg 66%
    03:00 +7°C° 0 mm 4 m/S 748 mmHg 66%
    04:00 +7°C° 0 mm 4 m/S 748 mmHg 66%
    05:00 +8°C° 0 mm 5 m/S 748 mmHg 65%
    06:00 +8°C° 0 mm 6 m/S 747 mmHg 63%
    07:00 +9°C° 0 mm 7 m/S 747 mmHg 61%
    08:00 +9°C° 1 mm 7 m/S 746 mmHg 68%
    09:00 +9°C° 1 mm 7 m/S 746 mmHg 74%
    10:00 +9°C° 1 mm 7 m/S 745 mmHg 80%
    11:00 +9°C° 0.3 mm 7 m/S 744 mmHg 78%
    12:00 +10°C° 0.3 mm 6 m/S 744 mmHg 76%
    13:00 +10°C° 0.3 mm 6 m/S 743 mmHg 73%
    14:00 +11°C° 0.5 mm 7 m/S 743 mmHg 71%
    15:00 +12°C° 0.5 mm 8 m/S 744 mmHg 68%
    16:00 +13°C° 0.5 mm 9 m/S 744 mmHg 65%
    17:00 +12°C° 0.1 mm 10 m/S 745 mmHg 66%
    18:00 +12°C° 0.1 mm 12 m/S 746 mmHg 67%
    19:00 +10°C° 0.1 mm 14 m/S 747 mmHg 68%
    20:00 +10°C° 0 mm 12 m/S 748 mmHg 71%
    21:00 +9°C° 0 mm 11 m/S 749 mmHg 74%
    22:00 +8°C° 0 mm 10 m/S 750 mmHg 78%
    23:00 +8°C° 0 mm 10 m/S 751 mmHg 75%

    Morgen, 25 Januar, Samstag

    Zeit Temperatur Niederschläge Wind Luftdruck Luftfeuchtigkeit
    00:00 +8°C° 0 mm 10 m/S 751 mmHg 71%
    01:00 +7°C° 0 mm 10 m/S 752 mmHg 68%
    02:00 +7°C° 0 mm 8 m/S 752 mmHg 70%
    03:00 +6°C° 0 mm 7 m/S 752 mmHg 72%
    04:00 +7°C° 0 mm 5 m/S 752 mmHg 74%
    05:00 +8°C° 0 mm 4 m/S 752 mmHg 71%
    06:00 +10°C° 0 mm 4 m/S 751 mmHg 68%
    07:00 +10°C° 0 mm 3 m/S 751 mmHg 65%
    08:00 +12°C° 0 mm 4 m/S 751 mmHg 61%
    09:00 +13°C° 0 mm 6 m/S 750 mmHg 57%
    10:00 +15°C° 0 mm 7 m/S 750 mmHg 52%
    11:00 +15°C° 0.1 mm 8 m/S 749 mmHg 53%
    12:00 +15°C° 0.1 mm 8 m/S 749 mmHg 54%
    13:00 +15°C° 0.1 mm 9 m/S 748 mmHg 54%
    14:00 +14°C° 0.7 mm 10 m/S 748 mmHg 54%
    15:00 +13°C° 0.7 mm 11 m/S 748 mmHg 53%
    16:00 +13°C° 0.7 mm 12 m/S 748 mmHg 52%
    17:00 +12°C° 0 mm 12 m/S 748 mmHg 52%
    18:00 +12°C° 0 mm 12 m/S 749 mmHg 52%
    19:00 +10°C° 0 mm 12 m/S 749 mmHg 52%
    20:00 +9°C° 0 mm 12 m/S 749 mmHg 57%
    21:00 +8°C° 0 mm 13 m/S 749 mmHg 62%
    22:00 +8°C° 0 mm 13 m/S 750 mmHg 67%
    23:00 +8°C° 0 mm 13 m/S 750 mmHg 67%

    übermorgen, 26 Januar, Sonntag

    Zeit Temperatur Niederschläge Wind Luftdruck Luftfeuchtigkeit
    00:00 +8°C° 0 mm 13 m/S 750 mmHg 67%
    01:00 +8°C° 0 mm 14 m/S 750 mmHg 67%
    02:00 +8°C° 0 mm 13 m/S 751 mmHg 67%
    03:00 +8°C° 0 mm 13 m/S 751 mmHg 67%
    04:00 +7°C° 0 mm 13 m/S 751 mmHg 67%
    05:00 +8°C° 0 mm 14 m/S 752 mmHg 64%
    06:00 +9°C° 0 mm 15 m/S 752 mmHg 61%
    07:00 +10°C° 0 mm 17 m/S 752 mmHg 58%
    08:00 +10°C° 0 mm 16 m/S 753 mmHg 59%
    09:00 +10°C° 0 mm 16 m/S 753 mmHg 60%
    10:00 +10°C° 0 mm 16 m/S 754 mmHg 61%
    11:00 +10°C° 0 mm 15 m/S 754 mmHg 60%
    12:00 +10°C° 0 mm 15 m/S 754 mmHg 58%
    13:00 +10°C° 0 mm 14 m/S 755 mmHg 57%
    14:00 +12°C° 0 mm 13 m/S 755 mmHg 55%
    15:00 +12°C° 0 mm 13 m/S 755 mmHg 53%
    16:00 +13°C° 0 mm 12 m/S 755 mmHg 51%
    17:00 +12°C° 0 mm 11 m/S 756 mmHg 52%
    18:00 +12°C° 0 mm 9 m/S 756 mmHg 52%
    19:00 +12°C° 0 mm 8 m/S 756 mmHg 53%
    20:00 +11°C° 0 mm 7 m/S 756 mmHg 56%
    21:00 +10°C° 0 mm 5 m/S 756 mmHg 58%
    22:00 +11°C° 0 mm 4 m/S 756 mmHg 61%
    23:00 +10°C° 0 mm 4 m/S 755 mmHg 61%

    27 Januar, Montag

    Zeit Temperatur Niederschläge Wind Luftdruck Luftfeuchtigkeit
    00:00 +10°C° 0 mm 4 m/S 755 mmHg 62%
    01:00 +10°C° 0 mm 3 m/S 754 mmHg 62%
    02:00 +10°C° 0 mm 4 m/S 754 mmHg 63%
    03:00 +10°C° 0 mm 4 m/S 753 mmHg 64%
    04:00 +10°C° 0 mm 4 m/S 753 mmHg 65%
    05:00 +11°C° 0 mm 4 m/S 752 mmHg 62%
    06:00 +12°C° 0 mm 4 m/S 751 mmHg 59%
    07:00 +12°C° 0 mm 4 m/S 750 mmHg 56%
    08:00 +14°C° 0 mm 5 m/S 749 mmHg 51%
    09:00 +15°C° 0 mm 6 m/S 748 mmHg 46%
    10:00 +16°C° 0 mm 7 m/S 746 mmHg 41%
    11:00 +17°C° 0 mm 7 m/S 745 mmHg 39%
    12:00 +19°C° 0 mm 6 m/S 744 mmHg 38%
    13:00 +21°C° 0 mm 6 m/S 743 mmHg 37%
    14:00 +18°C° 0.3 mm 7 m/S 743 mmHg 45%
    15:00 +16°C° 0.3 mm 9 m/S 742 mmHg 54%
    16:00 +14°C° 0.3 mm 10 m/S 742 mmHg 62%
    17:00 +13°C° 0.3 mm 11 m/S 742 mmHg 61%
    18:00 +12°C° 0.3 mm 12 m/S 742 mmHg 60%
    19:00 +10°C° 0.3 mm 13 m/S 742 mmHg 58%
    20:00 +9°C° 0 mm 12 m/S 742 mmHg 62%
    21:00 +8°C° 0 mm 10 m/S 742 mmHg 65%
    22:00 +7°C° 0 mm 9 m/S 742 mmHg 68%
    23:00 +7°C° 0 mm 9 m/S 742 mmHg 70%

    28 Januar, Dienstag

    Zeit Temperatur Niederschläge Wind Luftdruck Luftfeuchtigkeit
    00:00 +7°C° 0 mm 8 m/S 742 mmHg 72%
    01:00 +6°C° 0 mm 8 m/S 742 mmHg 74%
    02:00 +6°C° 0 mm 9 m/S 742 mmHg 75%
    03:00 +6°C° 0 mm 10 m/S 742 mmHg 76%
    04:00 +6°C° 0 mm 10 m/S 743 mmHg 76%
    05:00 +7°C° 0 mm 11 m/S 743 mmHg 72%
    06:00 +7°C° 0 mm 12 m/S 743 mmHg 68%
    07:00 +8°C° 0 mm 12 m/S 744 mmHg 64%
    08:00 +9°C° 0.2 mm 12 m/S 744 mmHg 60%
    09:00 +9°C° 0.2 mm 13 m/S 744 mmHg 57%
    10:00 +9°C° 0.2 mm 13 m/S 745 mmHg 53%
    11:00 +9°C° 0.1 mm 14 m/S 745 mmHg 52%
    12:00 +10°C° 0.1 mm 15 m/S 745 mmHg 52%
    13:00 +10°C° 0.1 mm 16 m/S 745 mmHg 51%
    14:00 +10°C° 0.2 mm 16 m/S 745 mmHg 50%
    15:00 +10°C° 0.2 mm 16 m/S 745 mmHg 48%
    16:00 +9°C° 0.2 mm 16 m/S 745 mmHg 47%
    17:00 +9°C° 0 mm 16 m/S 746 mmHg 48%
    18:00 +7°C° 0 mm 16 m/S 746 mmHg 50%
    19:00 +6°C° 0 mm 15 m/S 746 mmHg 51%
    20:00 +5°C° 0 mm 15 m/S 747 mmHg 56%
    21:00 +4°C° 0 mm 15 m/S 747 mmHg 61%
    22:00 +4°C° 0 mm 15 m/S 747 mmHg 66%
    23:00 +2°C° 0 mm 15 m/S 747 mmHg 67%

    29 Januar, Mittwoch

    Zeit Temperatur Niederschläge Wind Luftdruck Luftfeuchtigkeit
    00:00 +2°C° 0 mm 16 m/S 748 mmHg 68%
    01:00 +2°C° 0 mm 16 m/S 748 mmHg 69%
    02:00 +2°C° 0 mm 16 m/S 748 mmHg 69%
    03:00 +2°C° 0 mm 16 m/S 749 mmHg 69%
    04:00 +2°C° 0 mm 16 m/S 749 mmHg 70%
    05:00 +4°C° 0 mm 16 m/S 749 mmHg 67%
    06:00 +3°C° 0 mm 17 m/S 749 mmHg 64%
    07:00 +5°C° 0 mm 17 m/S 750 mmHg 61%
    08:00 +6°C° 0 mm 16 m/S 750 mmHg 58%
    09:00 +6°C° 0 mm 16 m/S 750 mmHg 54%
    10:00 +8°C° 0 mm 15 m/S 750 mmHg 51%
    11:00 +9°C° 0 mm 15 m/S 750 mmHg 50%
    12:00 +9°C° 0 mm 14 m/S 750 mmHg 49%
    13:00 +9°C° 0 mm 14 m/S 750 mmHg 48%
    14:00 +9°C° 0 mm 13 m/S 750 mmHg 49%
    15:00 +9°C° 0 mm 13 m/S 749 mmHg 49%
    16:00 +9°C° 0 mm 12 m/S 749 mmHg 50%
    17:00 +9°C° 0 mm 11 m/S 749 mmHg 52%
    18:00 +8°C° 0 mm 10 m/S 749 mmHg 54%
    19:00 +8°C° 0 mm 9 m/S 749 mmHg 56%
    20:00 +8°C° 0.5 mm 7 m/S 748 mmHg 66%
    21:00 +7°C° 0.5 mm 6 m/S 748 mmHg 75%
    22:00 +6°C° 0.5 mm 4 m/S 747 mmHg 85%
    23:00 +6°C° 0.7 mm 5 m/S 746 mmHg 83%
    Mehr zeigen